Temperature
10 11 11 11 10 10 11 11 11 11 11 11 11 11 11 11 11 11 11 11 11 11 11 11 11 11 11 11 11 11 11 11 11 11 11 11 11 11 11 11 10 10 10
10 10 10 10 10 10 10 10 10 10 10 10 10 11 10 10 10 10 10 10 10 10 10 10 10 10 10 10 10 10 10 10 10 10 10 10 10 10 10 10 10 10 10
10 10 10 10 10 10 10 10 10 10 10 10 10 10 10 10 10 10 10 10 10 10 10 10 10 10 10 10 10 10 10 10 10 10 10 10 10 10 10 10 10 10 9
9 9 9 9 9 9 9 9 9 10 10 9 10 10 10 10 10 10 9 9 10 10 10 10 10 10 10 10 9 9 9 9 10 10 10 10 9 9 9 9 9 9 9
9 9 9 9 9 9 9 9 9 9 9 9 9 9 9 9 9 9 9 9 9 9 9 9 9 9 9 9 9 9 9 9 9 9 9 9 9 9 9 9 9 8 8
9 9 8 9 9 9 9 9 9 9 9 9 9 9 9 9 9 9 9 9 9 9 9 9 9 9 9 9 9 9 9 9 9 9 9 9 8 8 8 8 8 8 8
8 8 8 8 8 8 8 8 8 8 8 8 8 8 8 8 8 8 8 8 8 8 8 8 8 8 8 8 8 8 8 8 8 8 8 8 8 8 8 7 7 7 7
8 8 8 8 8 8 8 8 8 8 8 8 8 8 7 7 7 8 8 8 8 8 8 8 8 8 8 8 8 8 8 8 8 8 8 8 7 7 7 7 7 7 7
7 8 8 7 8 8 8 8 7 8 7 7 7 7 7 7 7 7 7 7 7 7 7 7 7 7 7 7 7 7 7 7 7 7 7 7 7 7 7 6 6 6 6
7 7 7 7 7 7 7 7 7 7 7 7 7 7 7 7 7 6 6 6 6 7 7 7 7 7 7 7 7 7 7 7 7 7 7 6 6 6 6 6 6 6 6
7 7 7 7 7 7 7 7 7 7 7 7 7 7 7 7 7 6 6 6 6 6 6 6 6 6 6 6 6 7 7 7 6 6 6 6 6 6 6 6 6 6 6
7 6 6 6 6 6 7 7 6 6 6 6 6 6 6 6 6 6 6 6 6 6 6 6 6 6 6 6 6 6 6 6 6 6 6 6 6 6 6 6 5 5 5
6 6 6 6 6 6 6 6 6 6 6 6 6 6 6 6 6 6 6 5 5 5 5 5 5 5 5 5 6 6 6 6 6 5 5 5 6 5 6 5 5 5 5
6 6 6 6 6 6 6 6 6 6 6 5 5 5 5 5 5 5 5 5 4 4 4 5 5 5 5 5 5 5 5 5 5 5 5 5 5 5 5 5 5 5 5
6 6 6 6 6 5 5 5 5 5 5 5 5 5 5 5 5 5 5 5 5 4 4 4 4 5 5 5 5 5 5 5 5 5 5 5 5 5 5 4 4 4 4
5 5 5 5 5 5 5 5 5 5 5 5 5 4 5 5 5 5 4 4 4 4 3 4 4 4 4 4 4 4 4 4 4 4 4 4 4 4 4 4 4 4 4
5 5 5 5 5 5 5 5 4 4 4 4 4 4 4 4 4 4 4 4 4 4 3 3 3 3 3 4 4 4 3 3 3 3 3 3 3 3 3 3 3 3 3
5 5 5 4 4 4 4 4 4 4 4 4 4 4 4 4 4 3 3 3 3 3 3 3 3 3 3 3 3 3 3 3 3 2 2 3 2 3 3 3 3 3 3
4 4 4 4 4 4 4 4 4 4 4 4 4 4 4 3 3 3 3 3 3 3 3 2 2 2 2 2 2 2 2 2 2 2 2 2 2 2 2 2 2 2 2
4 4 4 4 4 4 4 4 4 4 4 3 3 3 3 3 3 3 3 3 2 2 2 2 2 2 1 1 1 1 2 2 2 2 2 1 2 2 2 2 2 1 1
4 4 3 3 3 3 3 3 3 3 3 3 3 3 3 3 3 2 2 2 2 2 2 1 1 1 1 1 1 1 1 1 1 1 1 1 1 1 1 1 1 1 1
3 3 3 3 3 3 3 3 3 3 3 3 2 2 2 2 2 2 2 1 1 1 1 1 1 1 1 1 1 0 0 0 0 1 1 1 1 1 1 1 1 1 1
3 3 3 2 2 2 2 2 2 2 2 2 2 2 2 2 1 1 1 1 1 1 0 0 0 0 0 0 0 -0 -0 -0 -0 0 0 0 0 0 0 0 0 0 -0
3 2 2 2 2 2 2 2 2 2 2 2 1 1 1 1 1 1 0 0 0 0 -0 -0 -0 -0 -0 -0 -0 -0 -1 -1 -1 -0 -1 -1 -0 -0 0 0 -0 -0 -1
2 2 2 2 1 1 1 1 1 1 1 1 1 1 1 1 0 -0 -0 -0 -0 -0 -1 -1 -1 -1 -1 -1 -1 -1 -1 -1 -1 -1 -1 -1 -1 -1 -1 -0 -0 -1 -1
2 1 1 1 1 1 1 1 1 1 1 1 0 0 0 -0 -0 -1 -1 -1 -1 -1 -1 -1 -1 -1 -1 -1 -2 -2 -2 -2 -2 -2 -2 -2 -2 -2 -2 -1 -1 -1 -1
Wind_Speed
1 1 1 2 2 3 3 2 1 2 2 3 3 3 3 4 6 7 7 8 8 8 8 8 8 7 7 7 7 7 7 7 7 7 7 7 7 7 7 7 7 8 7
1 1 1 1 2 3 3 3 2 1 2 3 3 3 3 3 5 7 8 7 7 8 8 8 7 7 7 7 7 7 7 7 7 7 6 6 6 6 6 6 5 5 6
1 2 1 1 1 2 3 3 3 3 2 2 3 3 3 4 5 6 7 7 7 8 8 7 7 6 6 6 6 6 6 6 6 6 6 5 5 5 4 4 4 4 3
1 1 1 0 1 2 2 2 2 3 2 2 2 2 3 4 4 5 5 6 7 6 6 7 6 6 6 6 6 6 6 5 5 4 5 4 4 3 3 3 3 3 2
2 1 1 1 2 2 1 2 2 3 3 2 2 2 2 3 3 4 4 5 6 7 6 6 6 6 5 5 5 5 5 4 4 3 3 3 3 2 2 2 1 1 1
2 2 1 2 2 2 1 2 4 3 2 2 2 2 2 2 2 3 3 5 6 7 6 6 5 4 4 4 4 4 4 4 3 2 2 3 2 2 2 2 1 1 1
2 2 1 1 2 2 2 3 4 4 2 2 3 2 2 1 2 2 3 4 4 6 6 5 5 4 4 3 3 2 3 3 3 3 2 3 3 3 3 3 3 3 3
1 2 2 2 2 2 2 3 4 2 1 2 2 2 1 1 1 2 2 2 2 4 4 4 4 4 3 3 2 2 2 2 3 3 3 3 4 4 4 4 5 4 4
1 1 2 2 2 2 3 3 4 4 3 1 1 2 2 2 0 0 0 1 2 2 2 3 3 2 3 3 3 3 2 3 4 5 5 5 5 5 6 6 6 6 6
2 2 2 2 2 2 3 3 2 2 4 3 1 0 1 2 2 1 1 0 1 1 1 1 2 2 2 3 3 3 3 3 4 5 6 6 7 6 7 7 7 7 7
1 2 2 2 2 2 3 3 3 3 2 3 2 1 1 1 1 2 2 1 1 1 1 2 2 3 4 4 4 4 4 5 6 7 7 8 8 8 8 8 8 8 8
1 2 2 2 2 2 3 4 3 4 3 3 2 2 2 2 1 1 1 2 2 2 2 2 2 3 4 4 4 4 5 5 7 8 9 9 9 9 9 9 9 9 9
1 2 2 2 2 2 3 3 3 3 4 4 3 2 2 2 2 1 2 1 1 2 2 2 3 4 4 4 4 4 5 6 8 9 10 10 9 10 9 9 10 10 10
2 2 3 3 3 3 3 3 3 3 3 3 3 2 2 1 1 2 2 2 1 2 2 3 2 4 4 5 5 5 6 7 8 9 10 11 10 9 9 10 11 11 11
2 2 3 3 3 3 3 4 3 3 3 3 3 3 2 2 1 1 2 3 3 3 4 4 2 3 5 5 6 7 7 9 9 9 10 11 10 10 10 11 12 12 12
2 3 3 3 3 4 4 4 3 3 4 3 2 3 2 1 1 1 2 2 2 3 4 3 2 2 4 5 7 7 8 10 11 11 11 11 11 10 11 12 12 12 12
3 3 3 3 3 3 4 4 4 4 4 3 3 3 3 2 1 1 1 2 2 2 4 3 2 2 2 3 4 7 8 8 9 11 11 11 11 11 11 12 13 13 13
3 3 3 3 3 3 3 4 4 4 4 4 4 3 3 3 3 2 2 2 2 2 3 4 3 2 3 3 3 4 6 7 8 10 11 12 11 12 12 13 13 14 14
3 3 3 3 3 3 4 4 4 4 4 4 4 4 4 3 3 2 2 2 2 2 2 3 4 3 3 3 3 4 5 5 7 9 11 11 11 12 13 14 14 14 14
3 3 3 3 3 3 3 3 4 4 3 3 4 4 5 5 5 4 3 3 3 2 2 2 3 3 3 3 2 3 4 3 4 7 9 10 12 13 14 15 14 14 14
3 3 3 3 2 3 3 3 3 3 3 3 3 3 3 4 4 4 4 4 3 3 3 3 4 4 4 3 4 3 5 4 5 5 4 6 7 8 11 13 14 14 14
3 3 3 3 3 2 3 4 3 3 3 3 3 3 3 4 5 5 6 5 5 4 4 4 4 5 5 4 3 4 4 4 5 3 3 5 5 5 8 11 14 15 15
3 3 3 3 3 3 4 4 4 3 3 4 4 3 3 3 4 4 5 5 6 8 8 6 6 6 6 5 5 5 5 5 6 4 3 6 4 6 8 11 14 15 15
2 2 3 3 2 3 4 4 3 3 3 4 4 4 4 4 4 4 4 4 4 5 7 6 6 6 6 5 6 6 6 5 5 4 3 5 4 5 6 8 13 13 13
2 2 2 2 2 2 3 4 3 2 3 3 4 4 4 4 5 5 4 4 5 5 6 8 8 8 8 8 6 3 3 3 5 4 2 3 3 4 4 5 8 10 11
2 2 2 2 3 2 3 4 3 2 2 3 3 3 4 4 5 5 4 4 5 5 4 4 5 6 6 6 7 5 4 4 4 4 2 2 2 2 3 3 3 6 8
Wind_Direction
114 105 115 122 142 143 151 158 137 133 144 129 122 117 117 110 105 108 115 129 138 139 138 134 133 132 127 124 124 124 120 120 118 113 108 106 102 98 93 90 84 73 70
55 91 83 83 112 145 161 157 140 126 108 108 112 100 92 94 106 115 120 126 133 139 136 138 139 139 136 129 126 125 127 123 124 121 116 111 110 105 97 92 86 80 71
69 82 79 49 87 150 156 133 118 111 109 105 110 96 87 87 86 106 118 127 130 133 136 138 141 143 142 137 134 128 128 129 126 126 122 117 112 108 101 94 86 87 72
122 102 124 94 76 116 115 136 138 124 116 107 110 108 88 88 85 90 101 117 127 129 132 139 140 142 144 143 142 139 135 134 132 135 135 131 128 124 115 103 95 88 70
169 154 153 165 139 97 119 150 130 125 126 116 108 92 93 94 97 102 98 100 113 118 116 126 136 141 149 154 151 150 147 144 144 145 154 155 159 161 161 158 140 115 66
178 157 139 152 133 121 126 126 120 103 119 126 104 77 70 93 96 107 113 103 104 108 109 110 113 125 139 151 157 166 166 163 174 184 186 182 189 195 209 219 216 233 258
182 150 155 134 138 142 147 135 124 115 112 111 98 77 42 67 105 107 107 105 102 104 103 102 106 111 121 131 140 163 184 191 201 216 227 223 221 224 239 243 240 243 254
169 167 160 153 139 136 139 143 129 130 146 138 130 131 115 48 38 70 91 111 114 111 110 114 115 119 125 127 149 179 203 227 238 245 254 251 242 244 251 256 250 250 255
162 162 166 157 158 148 156 155 148 147 165 184 145 140 148 181 158 6 98 107 116 114 119 125 132 133 143 140 152 175 209 246 258 259 256 259 256 257 256 261 260 259 260
171 172 178 171 175 161 157 162 147 135 153 171 180 62 136 138 150 159 307 60 114 149 174 153 153 175 173 165 175 189 208 238 261 264 263 264 264 263 264 264 266 268 268
175 175 182 178 177 164 158 156 154 153 156 166 168 155 72 66 118 158 213 251 298 263 218 194 188 197 196 194 187 194 216 242 260 266 270 270 274 272 271 270 271 271 273
187 181 170 174 171 160 163 166 165 165 169 166 158 153 162 164 186 165 201 221 247 261 262 229 199 199 201 198 198 209 225 246 262 269 272 277 280 281 276 276 277 277 274
198 198 175 171 164 161 157 157 157 164 172 173 174 177 181 187 178 174 171 218 268 282 265 255 221 206 204 192 206 226 239 253 264 270 273 280 282 286 281 281 280 279 277
198 197 178 174 170 166 163 156 158 168 167 171 179 177 185 202 173 167 173 179 256 284 257 248 241 209 205 204 226 240 247 259 269 274 276 280 281 283 280 281 281 279 276
180 180 184 179 177 172 169 164 171 174 174 178 180 181 190 198 182 183 181 177 188 242 253 240 233 220 219 221 231 235 245 255 264 271 274 278 276 273 274 276 276 275 273
177 170 181 181 183 180 173 171 174 175 179 191 183 175 191 197 186 185 189 202 202 219 249 244 253 249 228 240 244 244 250 256 256 261 268 272 271 268 271 274 274 273 272
168 174 174 175 183 185 176 173 180 174 179 190 190 187 193 193 194 199 202 208 224 222 255 280 289 274 246 249 248 253 257 252 253 258 264 271 273 271 271 274 275 275 273
171 173 168 177 189 193 181 176 182 181 185 193 198 191 198 196 193 202 204 218 229 229 238 270 284 285 268 254 245 258 263 262 258 260 263 268 270 274 272 272 273 274 273
172 171 174 184 190 192 187 181 184 188 193 195 197 198 205 198 209 210 211 221 231 243 241 253 276 285 283 272 276 278 270 266 267 266 264 265 269 273 274 274 273 272 271
177 178 183 189 191 191 188 185 189 194 195 199 205 209 210 207 210 210 219 220 226 234 243 249 270 276 275 269 264 272 282 274 275 271 264 267 271 274 274 273 272 271 270
184 178 179 186 192 193 191 184 186 195 202 210 219 222 215 211 220 226 231 221 219 230 238 250 262 270 267 259 254 262 275 285 277 259 260 260 262 264 269 271 268 267 269
179 175 185 191 198 207 193 194 196 202 208 212 223 231 231 219 224 241 250 247 239 234 238 248 262 261 263 258 258 263 269 284 280 256 261 271 253 264 263 266 269 271 271
183 185 191 194 198 192 191 200 213 211 212 219 221 227 240 239 238 225 246 255 253 255 251 249 256 258 258 251 248 253 253 262 267 267 273 275 261 263 265 269 274 272 273
179 185 188 186 194 201 200 211 221 218 220 223 224 226 229 234 235 237 237 243 252 255 251 250 247 253 255 246 240 248 253 265 278 269 242 264 271 268 280 271 272 272 273
177 180 179 181 194 214 215 220 227 213 220 230 236 235 234 232 250 253 245 249 263 265 268 265 267 269 269 262 253 255 263 274 284 277 238 237 268 289 282 272 267 274 277
176 174 175 188 202 218 226 224 224 208 222 234 239 244 251 252 258 257 246 243 255 263 270 280 281 279 271 260 249 231 228 254 278 274 229 227 267 307 291 278 274 282 282
Height
1514 1515 1517 1518 1520 1521 1523 1524 1526 1527 1530 1532 1533 1535 1537 1539 1540 1541 1542 1543 1545 1546 1546 1547 1548 1549 1550 1551 1551 1552 1553 1554 1554 1555 1555 1556 1556 1556 1556 1557 1557 1557 1557
1512 1513 1514 1515 1517 1519 1521 1522 1523 1525 1527 1529 1531 1533 1535 1537 1538 1539 1540 1542 1543 1544 1545 1546 1547 1548 1549 1550 1550 1551 1552 1552 1553 1554 1554 1555 1555 1555 1555 1555 1556 1556 1556
1510 1511 1512 1513 1515 1517 1518 1520 1521 1523 1525 1527 1529 1531 1533 1535 1536 1537 1539 1540 1541 1543 1544 1545 1546 1547 1548 1548 1549 1550 1550 1551 1552 1552 1553 1553 1553 1554 1554 1554 1554 1554 1554
1508 1508 1510 1511 1513 1514 1516 1517 1519 1521 1523 1525 1527 1529 1531 1533 1535 1536 1537 1539 1540 1541 1542 1543 1544 1545 1546 1547 1548 1548 1549 1549 1550 1550 1551 1551 1552 1552 1552 1552 1552 1552 1552
1505 1506 1507 1508 1510 1512 1514 1515 1517 1518 1520 1522 1525 1527 1529 1530 1532 1534 1535 1537 1538 1539 1540 1541 1542 1543 1544 1545 1546 1546 1547 1547 1548 1548 1549 1549 1549 1550 1550 1550 1550 1550 1550
1502 1503 1504 1505 1507 1509 1511 1513 1514 1516 1518 1521 1523 1525 1527 1529 1530 1531 1533 1534 1536 1537 1538 1539 1540 1541 1542 1543 1543 1544 1545 1545 1546 1546 1546 1547 1547 1547 1547 1548 1548 1548 1548
1500 1501 1501 1503 1505 1506 1509 1511 1512 1514 1516 1518 1521 1523 1525 1527 1528 1529 1531 1532 1534 1535 1536 1537 1537 1538 1539 1540 1541 1542 1542 1543 1543 1543 1544 1544 1544 1544 1545 1545 1545 1545 1545
1497 1498 1499 1501 1502 1504 1506 1508 1509 1512 1514 1516 1518 1520 1523 1526 1526 1527 1529 1530 1531 1532 1533 1534 1535 1536 1536 1537 1538 1539 1539 1540 1540 1540 1541 1541 1541 1541 1542 1542 1542 1542 1542
1495 1496 1497 1498 1500 1502 1503 1505 1507 1509 1511 1513 1516 1519 1520 1521 1523 1525 1526 1528 1529 1530 1531 1531 1532 1533 1533 1534 1535 1536 1536 1537 1537 1537 1538 1538 1538 1538 1538 1538 1539 1539 1539
1493 1494 1495 1496 1497 1499 1501 1503 1505 1506 1508 1510 1513 1516 1518 1519 1520 1521 1523 1525 1526 1526 1527 1528 1529 1530 1530 1531 1531 1532 1533 1533 1533 1534 1534 1534 1534 1534 1535 1535 1535 1535 1535
1490 1491 1492 1493 1495 1496 1498 1500 1502 1504 1506 1508 1510 1513 1515 1517 1518 1519 1519 1521 1522 1523 1524 1525 1525 1526 1527 1527 1528 1528 1529 1529 1529 1530 1530 1530 1530 1530 1530 1531 1531 1531 1530
1488 1489 1490 1491 1492 1494 1495 1497 1499 1501 1503 1506 1508 1510 1512 1513 1515 1516 1516 1517 1518 1519 1520 1521 1522 1522 1523 1524 1524 1524 1525 1525 1525 1526 1526 1526 1526 1525 1526 1526 1526 1526 1526
1485 1486 1487 1488 1490 1491 1493 1495 1497 1499 1501 1503 1505 1507 1509 1511 1512 1513 1513 1513 1514 1515 1516 1517 1518 1519 1519 1520 1520 1520 1520 1521 1521 1521 1521 1521 1521 1520 1520 1521 1521 1521 1521
1483 1484 1485 1486 1487 1489 1490 1492 1494 1496 1498 1500 1502 1504 1505 1507 1509 1510 1510 1511 1511 1511 1512 1513 1514 1515 1515 1516 1516 1516 1516 1516 1516 1516 1516 1516 1516 1516 1515 1515 1515 1515 1515
1480 1481 1482 1483 1485 1486 1487 1489 1491 1493 1495 1497 1499 1500 1502 1504 1505 1506 1508 1509 1509 1508 1507 1508 1509 1510 1511 1511 1511 1511 1511 1511 1511 1511 1511 1511 1511 1510 1510 1510 1510 1509 1509
1478 1479 1479 1481 1482 1483 1485 1486 1488 1490 1492 1493 1495 1497 1498 1500 1502 1503 1504 1505 1506 1506 1504 1504 1505 1505 1506 1506 1506 1506 1506 1505 1506 1505 1505 1505 1505 1504 1504 1504 1504 1504 1503
1475 1476 1476 1478 1479 1480 1482 1483 1485 1487 1488 1490 1492 1493 1494 1496 1498 1499 1500 1501 1502 1502 1501 1499 1501 1501 1501 1501 1501 1501 1501 1500 1500 1500 1499 1499 1499 1498 1498 1498 1498 1497 1497
1473 1473 1474 1475 1476 1478 1479 1480 1482 1483 1485 1486 1488 1489 1491 1492 1493 1495 1496 1497 1497 1498 1498 1496 1496 1496 1496 1496 1496 1495 1495 1495 1494 1494 1494 1494 1493 1493 1492 1492 1491 1491 1490
1470 1470 1471 1472 1473 1474 1476 1477 1479 1480 1481 1483 1484 1485 1487 1488 1489 1490 1491 1492 1493 1493 1493 1492 1491 1492 1492 1492 1491 1490 1490 1489 1489 1489 1488 1488 1488 1487 1486 1486 1485 1484 1483
1467 1468 1469 1469 1470 1472 1473 1474 1475 1477 1478 1479 1480 1482 1483 1484 1484 1486 1486 1487 1488 1488 1488 1487 1487 1486 1486 1486 1486 1485 1484 1483 1483 1483 1483 1482 1482 1481 1480 1479 1479 1478 1477
1464 1465 1466 1467 1468 1468 1470 1471 1472 1473 1474 1475 1476 1477 1478 1479 1480 1481 1482 1482 1483 1483 1483 1482 1482 1481 1481 1481 1480 1480 1479 1478 1477 1477 1476 1476 1476 1475 1474 1473 1472 1471 1470
1461 1462 1463 1464 1464 1465 1467 1468 1468 1469 1470 1471 1472 1473 1474 1475 1476 1477 1477 1478 1479 1478 1478 1478 1477 1476 1476 1476 1476 1475 1474 1473 1471 1472 1470 1469 1469 1468 1467 1466 1465 1464 1463
1458 1459 1459 1460 1461 1462 1463 1464 1465 1465 1466 1467 1468 1469 1470 1470 1471 1472 1472 1473 1473 1473 1474 1474 1472 1471 1471 1471 1471 1470 1469 1468 1466 1466 1465 1463 1463 1461 1461 1460 1459 1458 1456
1454 1455 1456 1457 1458 1458 1459 1460 1461 1462 1463 1464 1464 1465 1466 1466 1467 1467 1467 1467 1467 1468 1468 1468 1467 1466 1466 1466 1466 1465 1464 1463 1461 1461 1460 1458 1456 1456 1455 1454 1453 1451 1451
1451 1452 1453 1454 1455 1455 1456 1457 1458 1458 1459 1459 1460 1461 1461 1462 1462 1463 1463 1462 1462 1462 1462 1462 1462 1461 1460 1460 1460 1460 1459 1457 1455 1454 1454 1453 1451 1450 1448 1447 1447 1446 1444
1448 1449 1450 1451 1452 1452 1453 1454 1454 1454 1455 1455 1456 1456 1457 1457 1458 1458 1458 1457 1457 1456 1457 1456 1456 1455 1455 1455 1455 1455 1454 1453 1451 1449 1449 1449 1447 1445 1442 1440 1441 1440 1439